Back to catalog

STARLINK-5865

AliveCommunicationsVLEO
NORAD 57053·PAYLOAD·🇺🇸 United States

Launched Jun 22, 2023 from Vandenberg Space Force Base

Loading…

Next Passes (next 24 hours)

TLE

FreshSource: CelesTrak SupGP

Epoch: Sep 14, 2026, 14:36 UTC

1 57053C 23088F   26257.60881944  .00028302  00000+0  10252-2 0  2576
2 57053  43.0015 123.8888 0001353 254.0390  99.2053 15.27559458    18

Track STARLINK-5865 in real time with AllMySat

Download on the App Store